Location: Newark
(46.2167°N, 5.8664°E)
Time: 15:49:08
(UTC+00:00)

N. Korean satellite - Visible Passes

Search period start: 18 October 2019 00:00
Search period end: 28 October 2019 00:00
Orbit: 455 x 508 km, 97.2° (Epoch: 18 October)

Date Brightness Start Highest point End Pass type
(mag) Time Alt. Az. Time Alt. Az. Time Alt. Az.
18 Oct 10.3 17:52:59 10° WSW 17:54:17 12° W 17:55:35 10° WNW visible
19 Oct 8.1 05:14:08 10° NNE 05:17:36 42° E 05:21:05 10° S visible
19 Oct 9.4 17:26:01 10° SSW 17:28:47 23° W 17:31:35 10° NW visible
20 Oct 9.5 04:49:19 10° NE 04:52:11 22° E 04:55:05 10° SSE visible
21 Oct 10.4 04:25:22 10° ENE 04:26:41 12° E 04:28:00 10° ESE visible
22 Oct 6.9 05:31:29 10° NNE 05:35:07 73° ESE 05:38:47 10° S visible
22 Oct 10.0 17:44:24 10° SW 17:46:23 14° W 17:48:22 10° NW visible
23 Oct 8.5 05:06:23 10° NNE 05:09:45 35° E 05:13:09 10° SSE visible
23 Oct 9.0 17:17:53 10° SSW 17:20:53 28° W 17:23:56 10° NW visible
24 Oct 9.8 04:41:42 10° NE 04:44:19 18° E 04:46:56 10° SE visible
26 Oct 7.4 05:23:38 10° NNE 05:27:16 58° E 05:30:55 10° S visible
26 Oct 9.8 17:36:00 10° SW 17:38:26 18° W 17:40:53 10° NW visible
27 Oct 8.9 04:58:38 10° NE 05:01:52 29° E 05:05:07 10° SSE visible
27 Oct 8.5 17:09:46 10° SSW 17:12:57 35° W 17:16:12 10° NNW visible
